Tracking 27188 objects as of 1-Apr-2023
HD Live streaming from Space Station
objects crossing your sky now

STARLINK-1867

Track STARLINK-1867 now!
10-day predictions
STARLINK-1867 is classified as:


NORAD ID: 47153
Int'l Code: 2020-088AH
Perigee: 553.5 km
Apogee: 555.3 km
Inclination: 53.1 °
Period: 95.6 minutes
Semi major axis: 6925 km
RCS: Unknown
Launch date: November 25, 2020
Source: United States (US)
Launch site: AIR FORCE EASTERN TEST RANGE (AFETR)
Your satellite tracking list
Your tracking list is empty




NASA's NSSDC Master Catalog

Two Line Element Set (TLE):
1 47153U 20088AH  23091.37789822  .00025985  00000-0  17575-2 0  9995
2 47153  53.0526  85.1419 0001325  90.6818 269.4323 15.06388406130244
Source of the keplerian elements: AFSPC